Tracking 19846 objects as of 19-Sep-2019
HD Live streaming from Space Station
objects crossing your sky now

SL-8 DEB

Track SL-8 DEB now!
10-day predictions


NORAD ID: 39838
Int'l Code: 1991-009DW
Perigee: 1,457.7 km
Apogee: 1,828.7 km
Inclination: 74.1 °
Period: 119.0 minutes
Semi major axis: 8014 km
RCS: 0.0192 m2 (small)
Launch date: February 12, 1991
Source: Commonwealth of Independent States (former USSR) (CIS)
Launch site: PLESETSK MISSILE AND SPACE COMPLEX (PKMTR)

Note: This is SATELLITE DEBRIS
aabbcc
Your satellite tracking list
Your tracking list is empty




NASA's NSSDC Master Catalog

Two Line Element Set (TLE):
1 39838U 91009DW  15233.73488094 -.00000266 +00000-0 -25347-2 0  9996
2 39838 074.1171 017.2210 0231481 324.4522 034.1270 12.10069549411918
Source of the keplerian elements: AFSPC